Date,TemperatureHighF,TemperatureAvgF,TemperatureLowF,DewpointHighF,DewpointAvgF,DewpointLowF,HumidityHigh,HumidityAvg,HumidityLow,PressureMaxIn,PressureMinIn,WindSpeedMaxMPH,WindSpeedAvgMPH,GustSpeedMaxMPH,PrecipitationSumIn
2012-1-11,68.0,50.8,59.0,44.0,8.6,-99.9,46,30,24,0.00,40.00,6,-203,18,0.00
2012-1-12,74.0,66.7,60.0,15.0,5.4,-11.0,12,9,5,0.00,40.00,17,11,41,0.00
2012-1-13,75.0,66.7,57.0,3.0,-3.1,-11.0,7,6,5,0.00,40.00,19,12,41,0.00
2012-1-14,65.0,63.3,58.0,29.0,12.8,-5.0,27,15,6,0.00,40.00,14,4,26,0.00
2012-1-15,59.0,53.5,48.0,50.0,35.4,7.0,99,57,16,0.00,40.00,8,4,13,0.00
2012-1-16,58.0,48.8,42.0,49.0,44.4,38.0,100,86,61,0.00,40.00,7,4,15,0.00
2012-1-17,56.0,46.7,40.0,45.0,39.5,37.0,92,77,49,0.00,40.00,8,4,19,0.00
2012-1-18,65.0,52.5,44.0,49.0,42.4,36.0,78,69,56,0.00,40.00,6,3,11,0.00
2012-1-19,65.0,55.4,48.0,49.0,40.8,30.0,87,59,47,0.00,40.00,7,3,14,0.00
2012-1-20,61.0,51.4,44.0,50.0,46.2,39.0,100,83,64,0.00,40.00,6,3,15,0.00
2012-1-21,60.0,51.8,47.0,53.0,43.6,28.0,100,78,29,0.00,40.00,26,10,54,0.85
2012-1-22,57.0,50.8,45.0,49.0,41.9,31.0,92,72,47,0.00,40.00,8,4,18,0.03
2012-1-23,51.0,47.8,43.0,49.0,45.6,42.0,100,93,74,0.00,40.00,18,6,35,0.63
2012-1-24,65.0,56.0,49.0,44.0,33.5,20.0,76,46,20,0.00,40.00,37,22,67,0.03
2012-1-25,76.0,67.9,61.0,33.0,27.5,20.0,26,22,18,0.00,40.00,31,21,53,0.00
2012-1-26,84.0,73.4,66.0,39.0,35.2,30.0,37,25,17,0.00,40.00,24,14,41,0.00
2012-1-27,72.0,63.7,58.0,43.0,29.7,5.0,54,31,13,0.00,40.00,30,20,58,0.00
2012-1-28,70.0,62.5,57.0,6.0,0.1,-10.0,11,8,5,0.00,40.00,31,22,68,0.00
2012-1-29,77.0,70.6,62.0,16.0,5.6,-14.0,12,8,4,0.00,40.00,30,12,65,0.00
2012-1-30,70.0,64.2,56.0,44.0,30.2,13.0,56,30,13,0.00,40.00,7,4,14,0.00
2012-1-31,61.0,55.3,45.0,49.0,42.9,31.0,91,64,40,0.00,40.00,17,5,33,0.00
2012-2-1,66.0,57.1,49.0,53.0,43.2,33.0,82,60,44,0.00,40.00,9,5,13,0.00
2012-2-2,66.0,56.7,49.0,50.0,40.8,29.0,93,57,35,0.00,40.00,15,6,46,0.00
2012-2-3,70.0,61.6,53.0,19.0,13.0,4.0,17,15,12,0.00,40.00,27,11,39,0.00
2012-2-4,69.0,61.4,51.0,22.0,16.6,9.0,23,18,12,0.00,40.00,16,9,37,0.00
2012-2-5,72.0,63.7,54.0,22.0,19.5,16.0,24,18,14,0.00,40.00,23,9,35,0.00
2012-2-6,67.0,61.4,55.0,26.0,22.7,15.0,28,23,17,0.00,40.00,9,6,70,0.00
2012-2-7,59.0,53.7,49.0,51.0,39.8,22.0,94,63,25,0.00,40.00,20,9,35,0.03
2012-2-8,73.0,60.8,51.0,40.0,32.3,27.0,63,37,20,0.00,40.00,27,15,52,0.01
2012-2-9,80.0,70.0,62.0,33.0,28.2,24.0,29,21,17,0.00,40.00,33,13,84,0.00
2012-2-10,70.0,62.6,52.0,52.0,42.1,28.0,86,50,26,0.00,40.00,8,5,16,0.00
2012-2-11,62.0,52.2,46.0,51.0,47.5,44.0,99,86,59,0.00,40.00,14,4,27,0.00
2012-2-12,61.0,51.5,44.0,48.0,42.8,38.0,94,73,55,0.00,40.00,8,4,18,0.00
2012-2-13,54.0,48.1,42.0,48.0,42.8,32.0,100,84,45,0.00,40.00,38,10,54,0.02
2012-2-14,56.0,47.9,39.0,40.0,36.9,32.0,88,67,48,0.00,40.00,16,6,35,0.01
2012-2-15,51.0,46.1,43.0,46.0,37.1,26.0,96,73,42,0.00,40.00,28,10,46,0.02
2012-2-16,66.0,54.8,44.0,27.0,22.5,17.0,49,30,19,0.00,40.00,28,15,76,0.02
2012-2-17,71.0,61.4,54.0,29.0,19.4,8.0,29,20,11,0.00,40.00,24,11,59,0.00
2012-2-18,60.0,52.0,44.0,48.0,40.7,21.0,98,69,27,0.00,40.00,6,4,14,0.00
2012-2-19,60.0,50.5,44.0,45.0,42.4,36.0,98,76,53,0.00,40.00,7,3,18,0.00
2012-2-20,60.0,49.5,43.0,46.0,44.3,42.0,100,84,56,0.00,40.00,7,4,16,0.00
2012-2-21,73.0,62.1,49.0,44.0,23.4,17.0,82,25,14,0.00,40.00,26,13,44,0.00
2012-2-22,81.0,70.2,64.0,44.0,29.0,20.0,28,22,13,0.00,40.00,20,9,70,0.00
2012-2-23,77.0,69.3,60.0,39.0,32.9,17.0,32,26,16,0.00,40.00,8,5,107,0.00
2012-2-24,78.0,65.5,46.0,47.0,38.7,27.0,100,47,18,0.00,40.00,7,5,66,0.00
2012-2-25,66.0,54.1,45.0,51.0,46.8,22.0,100,80,28,0.00,40.00,5,3,13,0.00
2012-2-26,62.0,52.6,46.0,48.0,40.9,19.0,98,68,27,0.00,40.00,14,5,30,0.00
2012-2-27,52.0,46.2,41.0,47.0,41.1,29.0,99,83,62,0.00,40.00,24,8,52,0.00
2012-2-28,56.0,44.6,36.0,37.0,31.0,25.0,79,59,47,0.00,40.00,24,7,62,0.00
2012-2-29,55.0,47.3,38.0,48.0,38.8,28.0,89,73,59,0.00,40.00,16,5,29,0.00
2012-3-1,61.0,51.6,43.0,47.0,40.0,30.0,92,66,48,0.00,40.00,16,6,34,0.00
2012-3-2,68.0,57.7,48.0,34.0,9.0,-17.0,56,23,4,0.00,40.00,29,20,55,0.00
2012-3-3,79.0,70.2,55.0,14.0,7.1,-9.0,10,8,6,0.00,40.00,23,10,35,0.00
2012-3-4,87.0,77.2,65.0,19.0,14.6,9.0,12,9,7,0.00,40.00,21,12,48,0.00
2012-3-5,81.0,73.8,62.0,32.0,24.6,13.0,23,16,11,0.00,40.00,6,5,82,0.00
2012-3-6,60.0,50.4,43.0,47.0,38.6,11.0,100,68,29,0.00,40.00,23,8,63,0.00
2012-3-7,63.0,49.0,40.0,33.0,11.6,1.0,46,24,9,30.05,30.01,29,15,66,0.00
2012-3-8,73.0,65.8,48.0,20.0,11.4,0.0,27,13,8,30.26,30.11,20,7,35,0.00
2012-3-9,81.0,72.2,59.0,14.0,9.8,0.0,12,9,7,30.24,30.02,34,15,57,0.00
2012-3-10,72.0,64.1,53.0,40.0,26.8,-99.9,55,29,10,30.03,29.94,19,6,70,0.00
2012-3-11,60.0,50.8,45.0,47.0,44.4,41.0,98,80,59,30.05,29.96,9,5,18,0.00
2012-3-12,64.0,51.7,46.0,47.0,44.8,43.0,95,79,52,30.05,29.96,7,4,15,0.00
2012-3-13,59.0,50.0,44.0,47.0,44.9,38.0,100,84,64,30.07,30.01,7,4,21,0.00
2012-3-14,62.0,53.0,44.0,51.0,45.5,42.0,98,77,58,30.13,30.05,10,4,38,0.00
2012-3-15,62.0,51.9,45.0,51.0,47.7,45.0,100,87,62,30.13,30.05,6,3,98,0.00
2012-3-16,52.0,49.8,47.0,52.0,49.6,47.0,100,99,97,30.07,29.92,9,5,17,0.07
2012-3-17,51.0,48.3,43.0,50.0,46.8,40.0,100,94,79,29.97,29.68,20,10,36,1.21
2012-3-18,55.0,45.0,41.0,44.0,42.1,40.0,98,90,65,29.76,29.66,28,15,45,0.24
2012-3-19,62.0,54.7,44.0,42.0,37.4,33.0,88,55,36,29.92,29.86,12,5,23,0.00
2012-3-20,69.0,63.5,51.0,42.0,33.8,-99.9,50,36,27,30.12,29.99,7,4,107,0.00
2012-3-21,79.0,73.8,66.0,41.0,39.6,36.0,34,30,23,30.08,29.95,7,4,64,0.00
2012-3-22,76.0,66.5,54.0,52.0,43.1,-99.9,94,47,33,29.97,29.87,6,-15,69,0.00
2012-3-23,67.0,57.1,51.0,56.0,52.8,48.0,100,87,62,30.04,29.94,6,3,54,0.00
2012-3-24,66.0,56.6,50.0,54.0,51.2,49.0,100,83,57,29.98,29.89,7,4,47,0.00
2012-3-25,55.0,51.4,45.0,55.0,51.1,44.0,100,99,74,30.02,29.80,19,9,50,1.90
2012-3-26,64.0,56.4,50.0,56.0,52.8,50.0,100,88,71,30.28,29.90,10,6,63,0.44
2012-3-27,67.0,63.5,54.0,52.0,48.9,43.0,70,60,51,30.08,30.01,7,5,16,0.00
2012-3-28,69.0,62.5,54.0,59.0,53.8,45.0,89,74,57,30.09,30.01,25,6,84,0.00
2012-3-29,72.0,60.6,53.0,59.0,55.2,52.0,100,84,56,30.05,29.97,8,3,18,0.00
2012-3-30,70.0,59.8,52.0,58.0,54.7,51.0,100,85,62,30.01,29.94,6,3,67,0.00
2012-3-31,59.0,53.9,51.0,58.0,53.4,42.0,100,98,84,30.20,29.95,18,5,35,0.11
2012-4-1,68.0,55.7,48.0,45.0,38.1,31.0,88,55,29,30.02,29.93,35,16,54,0.08
2012-4-2,78.0,67.4,55.0,34.0,26.7,15.0,44,23,13,30.02,29.88,33,17,95,0.00
2012-4-3,79.0,69.3,59.0,42.0,32.5,23.0,30,26,22,30.02,29.94,7,5,39,0.00
2012-4-4,72.0,64.5,55.0,49.0,41.1,29.0,54,43,28,29.98,29.88,56,7,145,0.00
2012-4-5,66.0,57.4,48.0,49.0,39.8,22.0,90,54,25,29.97,29.86,21,5,44,0.00
2012-4-6,74.0,56.6,46.0,22.0,13.9,7.0,34,21,9,30.07,29.97,35,21,73,0.00
2012-4-7,83.0,75.2,61.0,19.0,13.3,4.0,14,9,7,30.06,30.01,22,8,74,0.00
2012-4-8,80.0,74.2,58.0,23.0,17.9,-1.0,15,12,8,30.06,30.01,8,5,16,0.00
2012-4-9,77.0,72.3,52.0,35.0,27.2,-7.0,23,19,6,30.01,29.93,12,5,115,0.00
2012-4-10,64.0,53.5,46.0,49.0,42.8,4.0,98,70,14,29.97,29.86,11,5,19,0.00
2012-4-11,57.0,50.1,46.0,52.0,47.7,40.0,100,92,77,30.09,29.86,35,10,47,0.96
2012-4-12,54.0,48.5,43.0,49.0,44.9,40.0,98,88,73,30.17,30.06,13,6,30,0.01
2012-4-13,50.0,47.4,43.0,50.0,46.3,37.0,100,96,79,30.06,29.73,24,11,58,0.93
2012-4-14,60.0,49.8,41.0,44.0,37.4,34.0,83,63,44,30.04,29.74,32,14,54,0.02
2012-4-15,61.0,53.8,45.0,52.0,43.4,33.0,76,68,54,30.15,30.05,8,4,61,0.00
2012-4-16,78.0,64.5,51.0,50.0,41.8,29.0,75,47,21,30.15,30.08,9,5,55,0.00
2012-4-17,81.0,72.1,59.0,48.0,39.6,31.0,41,31,24,30.07,29.96,10,5,115,0.00
2012-4-18,73.0,67.6,59.0,53.0,48.8,39.0,65,51,40,30.02,29.92,6,4,66,0.00
2012-4-19,78.0,65.4,55.0,56.0,49.6,36.0,79,58,38,29.97,29.91,9,4,81,0.00
2012-4-20,93.0,74.5,58.0,54.0,48.5,38.0,72,45,15,29.99,29.93,10,4,16,0.00
2012-4-21,87.0,68.6,52.0,60.0,54.1,48.0,99,65,30,29.96,29.90,9,6,20,0.00
2012-4-22,68.0,56.4,50.0,59.0,53.8,50.0,100,92,66,29.97,29.92,8,4,17,0.00
2012-4-23,59.0,53.1,49.0,53.0,50.6,49.0,100,92,76,30.20,29.95,7,3,63,0.01
2012-4-24,67.0,57.2,50.0,51.0,48.6,46.0,91,74,54,30.05,29.96,9,5,110,0.01
2012-4-25,84.0,64.4,53.0,55.0,50.4,42.0,98,63,35,30.02,29.80,14,7,52,0.21
2012-4-26,62.0,55.2,51.0,56.0,53.2,50.0,100,93,73,30.22,29.90,9,6,98,0.69
2012-4-27,70.0,58.5,48.0,53.0,49.4,44.0,100,73,49,30.07,29.95,10,5,112,0.01
2012-4-28,81.0,64.6,51.0,54.0,48.6,44.0,78,58,35,29.95,29.77,9,4,119,0.00
2012-4-29,69.0,60.1,53.0,57.0,51.3,44.0,100,74,61,29.93,29.80,10,6,16,0.00
2012-4-30,63.0,55.6,52.0,56.0,53.9,52.0,100,94,76,29.97,29.92,9,5,84,0.00
2012-5-1,61.0,54.6,51.0,55.0,52.7,51.0,100,94,78,29.94,29.88,6,3,47,0.01
2012-5-2,63.0,55.4,52.0,53.0,50.9,49.0,94,85,67,29.96,29.88,8,3,79,0.01
2012-5-3,65.0,57.1,50.0,54.0,50.3,47.0,99,79,65,30.05,29.95,10,5,112,0.00
2012-5-4,68.0,58.2,52.0,55.0,50.1,45.0,86,75,60,30.08,29.99,10,6,67,0.00
2012-5-5,72.0,62.9,55.0,56.0,50.4,36.0,84,64,47,30.02,29.94,9,6,17,0.00
2012-5-6,69.0,58.7,52.0,57.0,52.1,43.0,100,80,61,29.98,29.92,9,5,15,0.00
2012-5-7,82.0,61.3,51.0,59.0,53.0,33.0,100,80,18,29.97,29.89,18,6,28,0.00
2012-5-8,88.0,72.6,53.0,56.0,37.4,18.0,87,39,8,29.92,29.83,31,11,51,0.00
2012-5-9,89.0,76.9,63.0,59.0,48.2,32.0,57,38,17,29.91,29.83,15,6,74,0.00
2012-5-10,66.0,58.9,51.0,57.0,54.2,51.0,100,85,66,29.92,29.86,8,5,17,0.00
2012-5-11,70.0,58.6,51.0,54.0,52.3,49.0,100,82,56,30.01,29.89,9,4,19,0.00
2012-5-12,69.0,57.4,51.0,56.0,53.3,51.0,100,88,61,30.07,29.98,9,4,17,0.00
2012-5-13,74.0,60.9,50.0,58.0,52.4,43.0,100,76,47,30.07,29.99,7,4,18,0.00
2012-5-14,81.0,64.0,53.0,56.0,50.8,43.0,89,65,34,30.04,29.94,11,5,18,0.00
2012-5-15,73.0,62.8,52.0,55.0,49.0,42.0,87,62,39,29.95,29.87,8,4,19,0.00
2012-5-16,79.0,70.1,57.0,54.0,50.5,46.0,67,51,37,29.91,29.81,7,4,16,0.00
2012-5-17,74.0,65.1,54.0,59.0,54.3,48.0,93,69,53,29.87,29.80,9,5,65,0.00
2012-5-18,68.0,58.5,49.0,53.0,49.9,44.0,97,75,53,29.90,29.83,9,5,19,0.00
2012-5-19,73.0,60.6,52.0,58.0,52.8,44.0,100,77,54,29.94,29.87,8,5,102,0.00
2012-5-20,94.0,70.4,54.0,60.0,53.1,31.0,97,60,16,29.94,29.87,12,5,18,0.00
2012-5-21,89.0,75.8,61.0,59.0,51.8,41.0,73,45,23,29.96,29.90,10,6,89,0.00
2012-5-22,79.0,69.7,58.0,61.0,54.2,46.0,82,59,44,29.94,29.83,6,4,50,0.00
2012-5-23,78.0,64.7,54.0,58.0,53.8,48.0,100,71,42,29.85,29.69,10,6,22,0.00
2012-5-24,68.0,58.7,53.0,56.0,54.2,52.0,99,86,61,29.74,29.67,9,6,91,0.00
2012-5-25,64.0,56.6,49.0,55.0,48.8,37.0,100,78,46,29.94,29.70,15,7,65,0.03
2012-5-26,64.0,54.9,45.0,46.0,42.4,39.0,90,65,39,30.03,29.78,11,5,21,0.02
2012-5-27,78.0,60.9,48.0,53.0,46.1,38.0,89,62,25,30.04,29.94,23,6,37,0.00
2012-5-28,84.0,71.6,57.0,57.0,45.2,32.0,64,41,22,29.97,29.90,22,7,31,0.00
2012-5-29,82.0,68.7,57.0,59.0,47.6,39.0,68,49,28,30.01,29.92,19,5,74,0.00
2012-5-30,75.0,64.7,57.0,57.0,51.2,40.0,74,62,41,30.03,29.96,7,4,18,0.00
2012-5-31,81.0,67.6,53.0,59.0,54.0,43.0,94,64,46,29.98,29.81,8,4,15,0.00
2012-6-1,77.0,66.4,57.0,59.0,56.1,51.0,87,71,52,29.86,29.81,6,4,18,0.00
2012-6-2,73.0,59.9,53.0,60.0,56.3,53.0,100,89,62,29.90,29.83,7,4,32,0.00
2012-6-3,71.0,60.1,55.0,59.0,56.2,55.0,100,88,63,29.94,29.83,7,4,16,0.00
2012-6-4,68.0,58.4,54.0,57.0,55.3,53.0,100,90,68,29.99,29.90,8,4,17,0.00
2012-6-5,75.0,62.1,51.0,55.0,47.0,29.0,100,64,30,29.98,29.88,17,6,34,0.00
2012-6-6,85.0,67.5,55.0,55.0,40.9,27.0,64,40,21,29.88,29.78,16,7,39,0.00
2012-6-7,82.0,68.8,56.0,59.0,50.1,36.0,73,53,30,29.89,29.81,10,5,18,0.00
2012-6-8,75.0,64.5,55.0,59.0,53.4,46.0,83,68,55,29.89,29.83,9,4,42,0.00
2012-6-9,71.0,58.8,53.0,57.0,54.1,47.0,100,86,61,29.86,29.79,6,4,14,0.00
2012-6-10,74.0,60.4,53.0,58.0,54.8,53.0,100,84,53,29.93,29.81,8,4,18,0.00
2012-6-11,76.0,61.2,53.0,59.0,56.0,53.0,100,85,54,29.98,29.90,9,5,22,0.00
2012-6-12,74.0,61.7,54.0,59.0,56.5,54.0,100,85,60,29.98,29.89,7,4,14,0.00
2012-6-13,74.0,60.3,54.0,60.0,56.3,54.0,100,88,61,29.91,29.79,7,4,16,0.00
2012-6-14,70.0,58.9,54.0,59.0,55.5,54.0,100,90,63,29.86,29.80,8,4,17,0.00
2012-6-15,67.0,57.1,54.0,59.0,55.9,54.0,100,96,72,29.88,29.80,8,4,13,0.00
2012-6-16,76.0,61.2,55.0,60.0,56.3,54.0,100,86,57,29.89,29.80,8,5,17,0.00
2012-6-17,83.0,69.8,55.0,61.0,57.5,47.0,100,67,47,29.95,29.87,7,4,14,0.00
2012-6-18,73.0,64.0,53.0,59.0,56.3,53.0,100,78,54,29.93,29.83,7,4,18,0.00
2012-6-19,72.0,59.9,53.0,57.0,55.2,53.0,100,87,58,29.91,29.81,7,4,16,0.00
2012-6-20,76.0,64.1,53.0,58.0,54.8,51.0,100,75,48,29.87,29.81,9,5,16,0.00
2012-6-21,74.0,60.7,53.0,59.0,55.0,51.0,100,83,54,29.93,29.85,7,4,20,0.00
2012-6-22,73.0,61.9,52.0,58.0,54.1,50.0,100,78,50,29.92,29.80,9,5,21,0.01
2012-6-23,77.0,64.2,53.0,57.0,52.3,46.0,97,67,44,29.87,29.78,9,5,18,0.01
2012-6-24,81.0,67.4,57.0,54.0,49.2,12.0,78,55,13,29.97,29.87,9,5,61,0.00
2012-6-25,78.0,66.6,56.0,51.0,45.1,23.0,69,48,21,30.02,29.92,10,5,18,0.00
2012-6-26,85.0,70.5,58.0,52.0,44.8,30.0,51,41,21,29.93,29.81,11,5,17,0.00
2012-6-27,87.0,72.9,63.0,53.0,45.6,38.0,47,39,22,29.93,29.81,10,4,19,0.00
2012-6-28,88.0,72.7,62.0,55.0,45.0,34.0,50,38,17,30.04,29.93,10,4,18,0.00
2012-6-29,85.0,72.3,57.0,57.0,49.0,32.0,74,45,29,30.04,29.94,11,5,20,0.00
2012-6-30,85.0,71.0,57.0,57.0,52.6,40.0,81,54,30,29.96,29.87,9,4,19,0.00
2012-7-1,78.0,65.0,54.0,60.0,56.2,52.0,99,75,51,29.91,29.83,7,4,19,0.00
2012-7-2,75.0,65.5,55.0,60.0,57.3,54.0,99,76,56,29.90,29.83,9,4,21,0.00
2012-7-3,70.0,61.1,56.0,61.0,57.8,55.0,100,90,69,29.93,29.86,8,5,15,0.00
2012-7-4,70.0,59.7,55.0,60.0,57.5,55.0,100,93,67,29.95,29.88,6,4,14,0.01
2012-7-5,75.0,60.9,53.0,60.0,57.0,53.0,100,88,57,29.99,29.92,8,5,18,0.01
2012-7-6,77.0,62.8,53.0,59.0,55.1,50.0,100,79,45,30.03,29.95,7,5,16,0.00
2012-7-7,86.0,70.7,61.0,57.0,52.4,39.0,71,53,32,30.02,29.96,9,4,49,0.00
2012-7-8,89.0,79.4,66.0,53.0,41.7,19.0,48,28,12,30.02,29.95,9,6,18,0.00
2012-7-9,94.0,85.2,70.0,52.0,43.4,22.0,30,24,14,29.97,29.88,10,5,17,0.00
2012-7-10,96.0,83.8,68.0,59.0,50.4,34.0,59,33,20,29.91,29.83,10,6,72,0.00
2012-7-11,92.0,76.9,60.0,54.0,50.4,44.0,81,42,23,29.90,29.81,10,5,18,0.00
2012-7-12,91.0,77.6,62.0,63.0,54.7,48.0,82,47,27,29.90,29.81,17,7,33,0.00
2012-7-13,95.0,80.9,71.0,61.0,55.8,48.0,64,45,22,29.96,29.85,12,6,48,0.00
2012-7-14,82.0,73.4,61.0,60.0,56.8,44.0,79,58,36,29.97,29.89,9,4,15,0.00
2012-7-15,73.0,63.3,55.0,59.0,55.7,50.0,100,78,54,29.95,29.89,10,5,15,0.00
2012-7-16,71.0,60.4,53.0,56.0,53.8,52.0,100,81,59,29.97,29.91,9,6,17,0.00
2012-7-17,73.0,61.3,55.0,57.0,52.7,46.0,96,75,52,30.02,29.94,7,5,17,0.00
2012-7-18,85.0,68.8,57.0,57.0,49.2,30.0,83,55,17,30.02,29.92,11,5,37,0.00
2012-7-19,92.0,84.4,76.0,53.0,47.5,18.0,39,28,10,29.98,29.90,28,11,50,0.00
2012-7-20,92.0,79.3,67.0,59.0,54.4,45.0,66,45,24,30.03,29.94,18,6,91,0.00
2012-7-21,92.0,79.4,66.0,62.0,53.4,46.0,64,42,26,29.99,29.88,9,5,18,0.00
2012-7-22,85.0,71.9,58.0,61.0,56.9,50.0,90,61,41,29.97,29.90,7,4,16,0.00
2012-7-23,80.0,70.0,56.0,61.0,57.0,48.0,99,65,45,29.98,29.93,8,4,14,0.00
2012-7-24,81.0,67.0,54.0,57.0,52.7,43.0,100,63,41,30.02,29.94,7,4,14,0.00
2012-7-25,76.0,63.1,53.0,57.0,52.5,45.0,100,71,49,30.03,29.94,9,4,16,0.00
2012-7-26,76.0,64.5,53.0,56.0,53.2,44.0,100,70,49,30.03,29.94,7,4,15,0.00
2012-7-27,75.0,65.2,51.0,56.0,51.6,43.0,97,63,48,30.03,29.94,8,5,18,0.00
2012-7-28,84.0,71.6,62.0,58.0,49.2,39.0,58,46,32,30.02,29.94,8,3,18,0.00
2012-7-29,81.0,71.4,61.0,60.0,52.3,37.0,67,51,36,30.01,29.91,7,4,15,0.00
2012-7-30,80.0,69.6,58.0,60.0,54.8,44.0,81,60,42,29.98,29.93,8,4,18,0.00
2012-7-31,84.0,72.2,62.0,60.0,54.3,44.0,74,54,34,30.03,29.96,11,4,69,0.00
2012-8-1,85.0,70.0,63.0,58.0,50.9,44.0,66,52,33,30.07,29.98,5,3,15,0.00
2012-8-2,81.0,75.8,68.0,61.0,54.3,39.0,58,48,38,30.02,29.91,5,4,23,0.00
2012-8-3,80.0,67.5,55.0,60.0,56.3,39.0,100,70,36,29.94,29.83,7,4,16,0.00
2012-8-4,78.0,66.2,57.0,61.0,58.3,56.0,100,77,51,29.95,29.87,6,3,19,0.00
2012-8-5,95.0,75.5,63.0,61.0,56.2,45.0,82,55,22,30.01,29.94,12,4,18,0.00
2012-8-6,104.0,82.7,67.0,59.0,54.4,34.0,69,42,12,30.03,29.92,28,5,45,0.00
2012-8-7,99.0,87.8,71.0,59.0,52.1,41.0,52,31,21,29.98,29.89,9,6,27,0.00
2012-8-8,100.0,85.8,76.0,59.0,52.2,40.0,45,32,21,29.95,29.88,10,5,35,0.00
2012-8-9,101.0,89.3,75.0,56.0,50.3,41.0,46,27,19,29.94,29.83,11,6,21,0.00
2012-8-10,104.0,88.9,75.0,59.0,49.5,25.0,45,27,12,29.86,29.74,11,6,21,0.00
2012-8-11,98.0,85.3,74.0,61.0,52.7,33.0,48,34,17,29.85,29.76,12,5,20,0.00
2012-8-12,103.0,91.8,77.0,54.0,48.8,27.0,31,24,13,29.88,29.79,14,7,23,0.00
2012-8-13,95.0,84.9,77.0,60.0,54.2,47.0,48,35,28,29.87,29.80,10,4,18,0.00
2012-8-14,97.0,83.6,73.0,59.0,52.2,40.0,45,35,14,29.88,29.78,11,5,21,0.00
2012-8-15,92.0,79.0,70.0,60.0,49.8,28.0,47,37,10,29.91,29.80,11,4,77,0.00
2012-8-16,97.0,83.4,75.0,52.0,45.3,23.0,38,28,7,29.92,29.86,11,4,92,0.00
2012-8-17,97.0,87.2,76.0,55.0,45.5,38.0,33,24,15,29.95,29.88,11,5,79,0.00
2012-8-18,92.0,82.7,74.0,60.0,50.6,41.0,53,34,25,29.96,29.86,10,4,77,0.00
2012-8-19,94.0,79.5,69.0,59.0,51.9,44.0,58,41,19,29.92,29.83,9,4,72,0.00
2012-8-20,88.0,77.4,68.0,63.0,57.4,50.0,71,51,37,29.94,29.87,7,4,18,0.00
2012-8-21,80.0,73.3,65.0,65.0,61.4,55.0,85,67,47,29.95,29.87,5,4,68,0.00
2012-8-22,81.0,70.6,62.0,64.0,61.9,57.0,94,76,55,29.94,29.89,6,3,76,0.00
2012-8-23,77.0,66.9,59.0,64.0,61.3,59.0,100,84,57,29.97,29.88,6,3,69,0.00
2012-8-24,81.0,66.2,58.0,62.0,60.1,58.0,100,83,50,29.95,29.86,7,3,106,0.00
2012-8-25,78.0,64.9,57.0,61.0,58.5,57.0,100,83,52,29.91,29.85,6,3,93,0.00
2012-8-26,88.0,65.7,55.0,59.0,54.7,26.0,100,75,13,29.97,29.88,9,4,73,0.00
2012-8-27,94.0,77.3,66.0,52.0,41.7,17.0,49,31,8,30.02,29.92,10,4,56,0.00
2012-8-28,98.0,87.2,77.0,53.0,40.4,25.0,29,20,13,29.96,29.86,13,6,19,0.00
2012-8-29,92.0,84.9,74.0,65.0,54.5,35.0,65,38,16,29.89,29.80,8,5,31,0.00
2012-8-30,90.0,80.3,71.0,62.0,51.6,34.0,52,38,23,29.88,29.80,8,4,99,0.00
2012-8-31,87.0,76.9,68.0,57.0,49.6,30.0,57,40,22,29.93,29.86,8,5,77,0.00
2012-9-1,86.0,77.7,67.0,51.0,41.8,27.0,39,28,12,29.97,29.91,10,4,75,0.00
2012-9-2,91.0,76.9,68.0,47.0,38.7,31.0,32,26,12,29.97,29.89,10,3,114,0.00
2012-9-3,95.0,82.7,71.0,54.0,40.6,24.0,37,24,9,29.99,29.92,9,4,18,0.00
2012-9-4,97.0,83.7,71.0,47.0,35.6,15.0,29,19,6,30.05,29.95,10,5,73,0.00
2012-9-5,85.0,77.2,69.0,53.0,38.4,18.0,47,26,10,30.02,29.94,7,4,86,0.00
2012-9-6,88.0,77.2,69.0,59.0,54.0,47.0,58,45,31,30.03,29.94,8,4,114,0.00
2012-9-7,88.0,77.7,66.0,62.0,58.0,54.0,75,52,31,30.07,29.96,8,5,93,0.00
2012-9-8,91.0,78.5,70.0,60.0,57.1,54.0,63,49,32,29.98,29.87,8,4,20,0.00
2012-9-9,95.0,81.2,70.0,61.0,57.1,53.0,61,45,29,29.93,29.85,8,4,63,0.00
2012-9-10,86.0,77.2,69.0,64.0,61.6,57.0,74,59,44,29.95,29.87,8,4,117,0.00
2012-9-11,78.0,71.3,63.0,66.0,63.3,58.0,99,77,62,30.01,29.88,6,3,15,0.00
2012-9-12,86.0,72.0,63.0,67.0,63.6,59.0,100,78,44,30.06,29.96,9,3,47,0.00
2012-9-13,100.0,81.3,71.0,62.0,55.5,34.0,68,46,12,30.06,29.96,29,6,40,0.00
2012-9-14,104.0,94.4,82.0,43.0,33.6,21.0,23,12,7,30.06,29.96,26,11,65,0.00
2012-9-15,101.0,92.7,83.0,38.0,32.5,24.0,17,12,9,30.07,29.96,25,10,48,0.00
2012-9-16,89.0,80.3,68.0,66.0,50.9,34.0,70,39,17,30.07,29.98,8,4,149,0.00
2012-9-17,88.0,72.1,60.0,63.0,56.5,43.0,100,62,24,30.06,29.97,9,3,16,0.00
2012-9-18,89.0,77.0,69.0,58.0,43.3,10.0,53,32,7,30.05,29.96,11,3,38,0.00
2012-9-19,94.0,84.0,66.0,61.0,43.3,19.0,44,27,9,30.01,29.92,21,6,35,0.00
2012-9-20,98.0,86.1,72.0,53.0,42.2,30.0,31,22,13,29.98,29.89,22,8,32,0.00
2012-9-21,94.0,82.4,67.0,61.0,51.3,36.0,60,36,19,29.96,29.87,10,4,92,0.00
2012-9-22,94.0,79.9,69.0,56.0,49.8,38.0,62,37,19,29.97,29.90,7,4,69,0.00
2012-9-23,96.0,85.9,78.0,52.0,41.4,37.0,30,21,14,30.01,29.92,11,6,26,0.00
2012-9-24,87.0,77.5,59.0,61.0,47.7,38.0,87,37,21,30.01,29.91,8,4,72,0.00
2012-9-25,78.0,67.5,57.0,59.0,52.5,36.0,87,60,38,29.93,29.86,10,4,51,0.00
2012-9-26,80.0,65.5,55.0,60.0,57.2,52.0,100,76,48,29.90,29.83,6,3,20,0.00
2012-9-27,88.0,72.4,61.0,61.0,51.8,38.0,81,51,27,29.94,29.88,7,4,23,0.00
2012-9-28,90.0,75.6,66.0,54.0,47.7,27.0,62,40,16,29.96,29.88,10,5,18,0.00
2012-9-29,94.0,84.6,74.0,53.0,39.1,24.0,40,21,10,30.01,29.92,26,11,41,0.00
2012-9-30,101.0,91.0,77.0,48.0,38.3,28.0,24,16,11,30.03,29.94,28,11,37,0.00
2012-10-1,106.0,94.3,82.0,46.0,34.5,22.0,19,13,7,29.98,29.88,29,11,75,0.00
2012-10-2,100.0,93.7,86.0,47.0,34.4,25.0,18,13,9,29.92,29.85,30,15,42,0.00
2012-10-3,86.0,77.5,64.0,62.0,47.4,25.0,58,36,18,30.02,29.90,9,4,14,0.00
2012-10-4,76.0,64.4,55.0,58.0,54.7,6.0,100,74,9,30.12,30.03,8,4,14,0.00
2012-10-5,75.0,63.8,55.0,61.0,57.1,52.0,100,81,59,30.07,29.95,10,4,13,0.00
2012-10-6,78.0,67.7,60.0,62.0,56.0,50.0,77,67,51,29.98,29.89,5,3,68,0.00
2012-10-7,79.0,67.5,60.0,61.0,55.9,51.0,82,67,51,29.95,29.89,6,3,13,0.00
2012-10-8,76.0,65.0,56.0,61.0,56.0,51.0,99,73,57,29.98,29.92,6,3,16,0.00
2012-10-9,73.0,63.0,56.0,57.0,53.5,47.0,96,73,49,30.01,29.93,9,4,50,0.00
2012-10-10,69.0,60.8,54.0,56.0,52.3,48.0,100,75,58,29.99,29.91,9,5,35,0.00
2012-10-11,66.0,58.4,53.0,55.0,50.5,47.0,93,76,52,29.95,29.88,9,6,92,0.00
2012-10-12,68.0,57.8,51.0,53.0,49.9,47.0,93,76,55,30.14,29.95,10,5,95,0.00
2012-10-13,76.0,63.8,54.0,55.0,49.8,47.0,81,62,42,30.18,30.06,5,3,136,0.00
2012-10-14,94.0,82.6,68.0,52.0,40.9,33.0,54,25,13,30.09,29.96,26,10,38,0.00
2012-10-15,95.0,84.0,76.0,41.0,35.4,29.0,24,18,12,29.98,29.89,17,7,30,0.00
2012-10-16,93.0,83.1,73.0,50.0,38.8,29.0,32,21,16,29.91,29.77,10,5,26,0.00
2012-10-17,96.0,85.6,71.0,45.0,35.7,26.0,35,19,9,29.87,29.77,12,6,27,0.00
2012-10-18,82.0,70.9,64.0,64.0,56.7,31.0,90,66,16,30.10,29.88,10,6,98,0.00
2012-10-19,78.0,67.5,59.0,63.0,58.9,55.0,98,75,56,30.04,29.90,7,3,20,0.00
2012-10-20,63.0,60.1,59.0,61.0,59.2,57.0,99,97,90,29.91,29.83,7,3,15,0.02
2012-10-21,71.0,61.5,56.0,60.0,57.2,54.0,98,87,63,29.92,29.86,6,3,15,0.01
2012-10-22,64.0,57.6,55.0,56.0,53.5,50.0,97,86,63,29.99,29.89,8,6,70,0.00
2012-10-23,69.0,58.7,50.0,54.0,47.2,41.0,97,69,37,29.98,29.92,22,7,33,0.01
2012-10-24,72.0,59.8,51.0,49.0,40.4,28.0,89,52,29,30.06,29.94,29,11,61,0.01
2012-10-25,84.0,67.4,58.0,42.0,33.9,25.0,38,30,18,30.09,29.94,31,20,55,0.00
2012-10-26,80.0,70.4,64.0,33.0,19.5,8.0,31,15,9,30.05,29.94,31,21,57,0.00
2012-10-27,93.0,79.0,69.0,23.0,15.7,6.0,11,9,7,29.95,29.87,27,13,48,0.00
2012-10-28,88.0,79.1,72.0,43.0,26.4,15.0,22,15,11,30.03,29.92,10,6,47,0.00
2012-10-29,86.0,74.6,63.0,40.0,27.5,15.0,21,18,11,30.11,30.03,8,4,14,0.00
2012-10-30,83.0,73.2,63.0,43.0,29.6,16.0,29,20,13,30.07,29.98,7,3,13,0.00
2012-10-31,76.0,65.7,56.0,53.0,44.2,25.0,68,48,22,30.05,29.97,10,4,30,0.00
2012-11-1,69.0,57.5,50.0,53.0,48.9,34.0,97,75,41,30.03,29.94,8,4,72,0.00
2012-11-2,68.0,58.0,51.0,56.0,51.2,49.0,94,79,59,30.01,29.93,8,4,16,0.00
2012-11-3,81.0,66.8,56.0,58.0,48.2,33.0,79,56,22,30.06,29.97,14,4,25,0.00
2012-11-4,93.0,82.0,70.0,29.0,22.1,18.0,21,11,8,30.12,30.05,14,9,32,0.00
2012-11-5,96.0,83.7,75.0,26.0,21.4,16.0,13,10,8,30.12,30.04,15,8,26,0.00
2012-11-6,82.0,74.3,62.0,54.0,37.9,21.0,63,29,13,30.10,30.03,5,3,16,0.00
2012-11-7,75.0,63.5,55.0,56.0,50.0,37.0,95,63,39,30.07,29.95,10,3,13,0.00
2012-11-8,58.0,53.7,51.0,55.0,51.7,46.0,97,93,72,29.99,29.87,11,7,23,0.06
2012-11-9,62.0,52.2,46.0,48.0,38.9,29.0,88,62,29,29.91,29.83,20,10,35,0.01
2012-11-10,61.0,51.6,43.0,39.0,30.7,23.0,65,46,25,30.11,29.90,23,11,35,0.00
2012-11-11,67.0,54.7,44.0,24.0,17.6,8.0,41,25,14,30.27,30.10,26,12,51,0.00
2012-11-12,71.0,59.8,51.0,17.0,4.4,-4.0,15,11,7,30.24,30.09,26,16,54,0.00
2012-11-13,84.0,70.9,60.0,22.0,6.9,-4.0,11,8,5,30.11,30.03,26,11,54,0.00
2012-11-14,79.0,71.4,62.0,37.0,19.9,5.0,29,15,7,30.08,29.99,10,5,95,0.00
2012-11-15,64.0,60.6,56.0,48.0,27.3,14.0,74,31,14,30.10,30.02,12,8,139,0.00
2012-11-16,66.0,57.7,51.0,55.0,47.8,39.0,97,71,45,30.11,30.03,10,5,18,0.17
2012-11-17,58.0,55.7,54.0,58.0,55.5,54.0,100,99,97,30.24,30.03,5,3,23,0.76
2012-11-18,67.0,57.6,53.0,55.0,52.4,48.0,100,84,61,30.31,30.10,26,7,53,0.01
2012-11-19,67.0,57.9,51.0,56.0,51.3,46.0,96,79,64,30.24,30.15,9,6,44,0.01
2012-11-20,74.0,62.1,55.0,52.0,46.9,40.0,80,59,40,30.15,30.04,18,8,80,0.00
2012-11-21,72.0,61.4,53.0,55.0,48.0,41.0,77,62,50,30.10,30.02,21,8,86,0.00
2012-11-22,74.0,63.7,54.0,56.0,48.0,34.0,78,58,28,30.12,30.03,22,10,69,0.00
2012-11-23,85.0,76.2,64.0,40.0,30.9,25.0,31,20,15,30.17,30.09,24,12,78,0.00
2012-11-24,88.0,78.5,70.0,34.0,27.8,21.0,21,16,11,30.11,29.95,26,10,37,0.00
2012-11-25,73.0,63.9,50.0,56.0,48.9,24.0,98,64,18,29.96,29.88,8,5,69,0.00
2012-11-26,58.0,50.3,48.0,52.0,50.3,48.0,100,99,99,30.09,29.95,5,3,18,0.00
2012-11-27,69.0,58.6,49.0,55.0,48.6,42.0,96,70,52,30.14,30.05,8,4,80,0.00
2012-11-28,64.0,54.3,49.0,55.0,50.1,47.0,99,87,58,30.20,30.08,7,4,19,0.13
2012-11-29,58.0,55.8,53.0,58.0,55.7,53.0,100,99,98,30.42,30.18,11,6,25,0.59
2012-11-30,61.0,57.9,54.0,61.0,57.2,51.0,100,98,85,30.35,30.03,13,5,56,0.87
2012-12-1,61.0,57.2,55.0,60.0,55.8,52.0,100,95,83,30.37,30.09,12,5,30,0.17
2012-12-2,59.0,55.9,53.0,58.0,55.5,53.0,100,99,95,30.34,30.07,21,6,52,0.29
2012-12-3,63.0,58.5,56.0,61.0,57.3,52.0,100,96,85,30.38,30.11,9,4,91,0.47
2012-12-4,71.0,60.0,52.0,57.0,51.0,40.0,98,75,42,30.47,30.14,12,5,62,0.01
2012-12-5,69.0,61.8,55.0,57.0,48.3,35.0,96,63,36,30.15,30.01,11,5,68,0.00
2012-12-6,68.0,55.8,51.0,57.0,47.7,-99.9,99,80,53,30.01,29.88,22,10,39,0.00
2012-12-7,71.0,63.5,56.0,56.0,46.4,29.0,78,55,25,29.97,29.90,18,9,97,0.00
2012-12-8,66.0,61.5,52.0,54.0,36.7,17.0,93,47,15,29.96,29.91,16,8,32,0.00
2012-12-9,70.0,56.8,48.0,54.0,49.6,30.0,100,79,32,30.10,29.94,9,6,35,0.00
2012-12-10,76.0,69.1,59.0,49.0,33.9,25.0,40,28,22,30.14,30.03,23,10,39,0.00
2012-12-11,73.0,59.8,50.0,51.0,41.4,23.0,98,58,23,30.05,29.94,11,7,35,0.00
2012-12-12,56.0,51.2,49.0,51.0,48.3,45.0,98,91,72,29.96,29.83,15,8,41,0.39
2012-12-13,58.0,50.1,44.0,49.0,42.8,31.0,99,78,56,29.86,29.69,13,6,42,0.50
2012-12-14,54.0,45.9,41.0,42.0,36.3,28.0,91,70,46,29.98,29.72,17,8,44,0.07
2012-12-15,57.0,47.7,40.0,41.0,36.0,30.0,94,66,44,30.06,29.80,21,11,62,0.07
2012-12-16,50.0,47.5,44.0,49.0,44.1,37.0,98,89,66,30.13,30.05,13,8,39,0.07
2012-12-17,58.0,51.4,49.0,50.0,48.9,47.0,99,92,73,30.15,30.01,15,4,37,0.05
2012-12-18,60.0,50.7,40.0,53.0,41.7,20.0,100,75,35,30.01,29.78,23,10,48,0.37
2012-12-19,58.0,45.9,39.0,26.0,16.6,2.0,53,33,15,30.22,29.98,28,16,80,0.01
2012-12-20,64.0,54.8,46.0,26.0,8.8,2.0,24,16,12,30.22,30.05,24,12,76,0.00
2012-12-21,65.0,56.3,49.0,40.0,26.2,7.0,50,33,15,30.10,30.02,17,8,78,0.00
2012-12-22,59.0,50.7,44.0,48.0,37.8,10.0,98,66,20,30.15,30.03,8,5,37,0.04
2012-12-23,57.0,50.3,46.0,51.0,47.7,44.0,99,92,73,30.20,30.10,7,4,35,0.09
2012-12-24,58.0,52.0,48.0,54.0,49.5,30.0,100,92,43,30.26,29.98,16,7,46,1.44
2012-12-25,57.0,51.2,47.0,46.0,39.3,29.0,81,65,44,30.08,29.96,13,6,36,0.01
2012-12-26,59.0,49.5,45.0,48.0,42.0,34.0,98,77,53,30.01,29.89,38,18,84,0.23
2012-12-27,61.0,49.1,44.0,40.0,32.1,25.0,70,52,38,30.05,29.91,27,15,73,0.04
2012-12-28,58.0,50.1,44.0,34.0,28.3,24.0,60,43,35,30.12,30.05,17,7,40,0.00
2012-12-29,50.0,44.9,42.0,44.0,38.5,26.0,94,79,44,30.16,29.94,14,8,85,0.06
2012-12-30,54.0,46.2,41.0,40.0,32.2,27.0,80,59,43,30.03,29.88,21,13,71,0.05
2012-12-31,56.0,47.4,43.0,41.0,29.8,24.0,66,51,38,30.20,30.01,32,15,69,0.00
2013-1-1,58.0,48.9,42.0,35.0,25.6,9.0,69,44,19,30.20,30.08,20,9,69,0.00